STARLINK-11548, 62829

Orbit data source: Space-Track

STARLINK-11548, 62829 is a payload satellite owned by SpaceX/Seattle (US) in LEO that was launched on Mon, 27 Jan 2025 UTC via an FALCON 9 launch vehicle from the Air Force Eastern Test Range (AFETR). Payload-class satellites include a variety of spacecraft equipped with specific instruments for various scientific and technological missions. These include communications satellites like Starlink; space stations such as the ISS; scientific satellites like the Hubble; Earth observation satellites from companies like Planet Labs, Umbra, and HawkEye 360; GPS; miniature CubeSats for education and research; and military/defense satellites.

Loading next visibility...
Identifier
62829, 2025-019A
Orbit
LEO
Country
Flag of USUS
Related business
Manufacturer
SpaceX/Seattle
Mission
Operational Commercial Communications
Bus & Motor
STARLINK V2MD, Unknown motor
Mass
960 kg wet, ~910 kg dry
Launch date (UTC)
2025-01-27 (9 months ago)
Launch vehicle
FALCON 9
Launch site
Air Force Eastern Test Range (AFETR)
Object type
Payload
Rocket body
Debris
Shape & HBR
Box + 2 Pan, 18.1 m
Radar Cross Section
36.964 m², Large (>1 m²)

Expand to show TLE details & history
Last TLE update: 10 hours ago

TLE from 10 hours ago
0 STARLINK-11548
1 62829U 25019A   25302.89686479  .00274511  00000-0  20705-2 0  9999
2 62829  42.9997  14.0722 0000748  12.5963 347.4923 15.70867301 43311
Epoch: 2025-10-29T21:31Z
TLE epoch observation values (Epoch: 2025-10-29T21:31:29.117Z)
Latitude
-0.00005°
Longitude
12.73741°
Altitude
355.696 km
Speed
7.698 km/s
True Right ascension
00h 56m 17s
True Declination
0° 00' 00"
Sunlit
Object was in full shadow at epoch
Visualization orbit readout
Latitude
Unknown
Longitude
Unknown
Altitude
Unknown
Speed
Unknown
Apparent Right ascension
Unknown
Apparent Declination
Unknown
Sunlit
N/A
Visualization observer readout
Local Sidereal Time
02:57:39
Azimuth
Unknown
Elevation
Unknown
Doppler factor
Unknown
Orbital elements
Apogee altitude
358.903 km
Perigee altitude
357.895 km
Semi-major axis
6,736.536 km
Eccentricity
0.00007
Inclination
42.9997°
RAAN
14.0722°
Arg. of periapsis
12.5963°
True anomaly
347.49044°
Mean anomaly
347.4923°
Eccentric anomaly
347.49137°
Mean motion
3.92544 °/min
Orbital period
91.71 mins
BSTAR
0.0020705
Loading maneuver chart data...
Computing Atmospheric mass density...
Loading historical data...
Loading historical data...
Loading historical data...
Loading historical data...
Loading historical data...
Loading historical data...
Loading historical data...

Documentation

Showing up to 5 results
|